Location: Tamazert
(32.6352°N, 5.2072°W)
Time: 00:14:48
(UTC+00:00)

X-37B - Visible Passes

Search period start: 13 August 2022 00:00
Search period end: 23 August 2022 00:00
Orbit: 328 x 343 km, 45.0° (Epoch: 12 August)

Date Brightness Start Highest point End Pass type
(mag) Time Alt. Az. Time Alt. Az. Time Alt. Az.
14 Aug 3.4 04:06:34 10° NNW 04:08:04 13° NNE 04:09:33 10° NE visible
15 Aug 2.6 04:26:19 10° NNW 04:28:48 25° NNE 04:31:16 10° E visible
16 Aug 4.0 03:14:38 11° NE 03:14:38 11° NE 03:14:57 10° NE visible
16 Aug 0.5 04:46:27 10° NW 04:49:20 75° NNE 04:52:13 10° ESE visible
17 Aug 3.2 03:35:26 19° ENE 03:35:26 19° ENE 03:36:41 10° E visible
17 Aug 1.3 05:07:09 10° WNW 05:09:42 28° SW 05:12:14 10° SSE visible
18 Aug 2.7 03:56:38 19° ESE 03:56:38 19° ESE 03:57:38 10° ESE visible
18 Aug 2.2 20:12:51 10° SSW 20:13:59 18° S 20:13:59 18° S visible
19 Aug 0.7 20:32:47 10° WSW 20:35:09 59° WSW 20:35:09 59° WSW visible
20 Aug 2.5 20:53:40 10° W 20:55:53 26° NW 20:55:53 26° NW visible
21 Aug 0.3 19:38:13 10° WSW 19:41:02 83° NNW 19:43:51 10° NE visible
21 Aug 3.7 21:15:22 10° NW 21:16:13 13° NNW 21:16:13 13° NNW visible
22 Aug 2.4 19:59:06 10° W 20:01:33 26° NNW 20:04:01 10° NNE visible
